Weather History for KVUO - September, 2013

Change the Weather History Date:

Friday, September 27, 2013

  Actual Average Record
Temperature  
Mean Temperature 54 °F 60 °F  
Max Temperature 57 °F 72 °F 95 °F (2003)
Min Temperature 50 °F 49 °F 34 °F (1896)
Degree Days  
Heating Degree Days 11    
Month to date heating degree days 66  
Since 1 July heating degree days 79  
Cooling Degree Days 0    
Month to date cooling degree days 74  
Year to date cooling degree days 450  
Growing Degree Days 4 (Base 50)    
Moisture  
Dew Point 50 °F    
Average Humidity 83    
Maximum Humidity 89    
Minimum Humidity 77    
Precipitation  
Precipitation 0.10 in 0.08 in 1.25 in (1940)
Month to date precipitation 2.29 1.30  
Year to date precipitation 18.12 23.13  
Snow  
Snow 0.00 in - - ()
Month to date snowfall 0.0  
Snow Depth 0.00 in    
Sea Level Pressure  
Sea Level Pressure 30.06 in    
Wind  
Wind Speed 4 mph (South)    
Max Wind Speed 14 mph    
Max Gust Speed 23 mph    
Visibility 10 miles    
Events Rain    
T = Trace of Precipitation, MM = Missing Value Source: NWS Daily Summary

Daily Weather History Graph

Daily Weather History Graph

Search for Another Location

Airport or City:

Trip Planner

Search our weather history database for the weather conditions in past years. The results will help you decide how hot, cold, wet, or windy it might be!

Date:

Astronomy

Sep. 27, 2013 Rise Set
Actual Time 7:04 AM PDT 6:57 PM PDT
Civil Twilight 6:34 AM PDT 7:27 PM PDT
Nautical Twilight 6:00 AM PDT 8:01 PM PDT
Astronomical Twilight 5:24 AM PDT 8:36 PM PDT
Moon No Moon Rise 2:55 PM PDT (9/27)
Length of Visible Light 12h 52m
Length of Day
11h 53m
Last Quarter, 44% of the Moon is Illuminated
Sep 27
Last Quarter
Oct 4
New
Oct 11
First Quarter
Oct 18
Full
Oct 26
Last Quarter

Hourly Weather History & Observations

Time (PDT) Temp. Dew Point Humidity Pressure Visibility Wind Dir Wind Speed Gust Speed Precip Events Conditions
12:53 AM 50.0 °F 46.9 °F 89% 30.17 in 10.0 mi Calm Calm - N/A   Partly Cloudy
1:53 AM 53.1 °F 48.0 °F 83% 30.17 in 10.0 mi SE 3.5 mph - N/A   Mostly Cloudy
2:53 AM 52.0 °F 48.0 °F 86% 30.17 in 10.0 mi SSE 4.6 mph - N/A   Mostly Cloudy
3:53 AM 51.1 °F 46.9 °F 86% 30.16 in 10.0 mi SE 3.5 mph - N/A   Partly Cloudy
4:53 AM 50.0 °F 46.9 °F 89% 30.15 in 10.0 mi Calm Calm - N/A   Clear
5:53 AM 51.1 °F 48.0 °F 89% 30.14 in 10.0 mi SE 5.8 mph - N/A   Overcast
6:53 AM 52.0 °F 48.0 °F 86% 30.14 in 10.0 mi SSE 4.6 mph - N/A   Overcast
7:53 AM 52.0 °F 48.0 °F 86% 30.14 in 10.0 mi ESE 4.6 mph - N/A   Overcast
8:53 AM 54.0 °F 46.9 °F 77% 30.14 in 10.0 mi Variable 4.6 mph - N/A   Overcast
9:53 AM 54.0 °F 48.0 °F 80% 30.13 in 7.0 mi South 8.1 mph - 0.00 in Rain Light Rain
10:53 AM 54.0 °F 50.0 °F 86% 30.11 in 7.0 mi SSE 6.9 mph - 0.09 in Rain Light Rain
11:53 AM 55.9 °F 50.0 °F 80% 30.09 in 10.0 mi SSE 5.8 mph - 0.00 in   Overcast
12:02 PM 55.4 °F 50.0 °F 82% 30.08 in 10.0 mi Variable 4.6 mph - N/A   Overcast
12:14 PM 55.4 °F 50.0 °F 82% 30.08 in 10.0 mi South 8.1 mph - N/A   Overcast
12:53 PM 55.9 °F 50.0 °F 80% 30.06 in 10.0 mi Variable 6.9 mph - N/A   Overcast
1:36 PM 55.4 °F 50.0 °F 82% 30.05 in 10.0 mi Variable 4.6 mph - 0.00 in Rain Light Rain
1:53 PM 57.0 °F 51.1 °F 81% 30.05 in 10.0 mi SSW 8.1 mph - 0.00 in Rain Light Rain
2:53 PM 55.9 °F 48.9 °F 77% 30.04 in 10.0 mi SSW 8.1 mph 18.4 mph 0.01 in Rain Light Rain
3:53 PM 55.9 °F 50.0 °F 80% 30.03 in 10.0 mi South 8.1 mph - 0.00 in Rain Light Rain
4:53 PM 55.9 °F 50.0 °F 80% 30.02 in 10.0 mi SSW 10.4 mph 21.9 mph 0.00 in   Overcast
5:53 PM 55.9 °F 50.0 °F 80% 30.01 in 10.0 mi Variable 6.9 mph 17.3 mph N/A   Overcast
6:53 PM 55.9 °F 51.1 °F 84% 30.01 in 10.0 mi Variable 5.8 mph - N/A   Overcast
7:53 PM 55.9 °F 51.1 °F 84% 29.99 in 10.0 mi SSW 8.1 mph - N/A   Overcast
8:28 PM 55.4 °F 51.8 °F 88% 29.98 in 10.0 mi Variable 5.8 mph - N/A   Overcast
8:53 PM 55.9 °F 51.1 °F 84% 29.98 in 10.0 mi South 9.2 mph 20.7 mph N/A   Overcast
9:40 PM 55.4 °F 51.8 °F 88% 29.96 in 10.0 mi Variable 3.5 mph - 0.00 in   Overcast
9:53 PM 55.9 °F 52.0 °F 87% 29.96 in 7.0 mi Variable 5.8 mph - 0.01 in Rain Light Rain
10:53 PM 55.9 °F 53.1 °F 90% 29.94 in 10.0 mi Variable 4.6 mph - 0.02 in   Overcast
11:51 PM 57.2 °F 53.6 °F 88% 29.92 in 10.0 mi SW 8.1 mph - 0.00 in Rain Light Rain
11:53 PM 57.0 °F 53.1 °F 87% 29.92 in 10.0 mi SSW 5.8 mph - 0.00 in Rain Light Rain